Wind_Speed
13 13 13 13 13 14 14 15 16 16 16 17 17 17 17 17 18 18 19 19 19 19 19 20 20 20 20 20 20 20 20 20 20 20 20 20 20 20
15 16 16 16 16 17 18 18 19 20 20 20 20 21 21 21 21 22 22 22 22 22 23 23 23 24 24 24 23 23 23 23 23 23 23 22 22 23
18 18 18 19 20 21 21 22 22 23 24 23 23 24 25 25 25 25 25 25 25 25 25 26 26 26 26 27 27 27 27 27 27 26 26 26 26 26
20 21 22 22 23 24 24 24 25 26 26 27 27 27 27 28 28 28 28 28 28 29 29 29 29 29 29 29 30 30 30 30 30 30 30 30 29 29
23 24 25 26 26 27 27 27 28 28 29 30 30 31 30 31 31 32 32 32 32 33 33 33 33 33 33 33 33 33 33 33 33 33 33 33 33 32
25 26 27 28 29 29 29 30 31 31 32 32 33 34 34 35 35 35 35 36 36 36 36 36 36 36 37 36 36 36 36 36 36 36 36 36 36 36
27 28 29 30 30 32 32 33 34 35 36 36 37 37 37 38 37 37 37 37 37 38 38 39 39 39 39 39 38 39 39 39 39 39 39 40 39 39
29 30 31 31 32 33 34 36 37 38 39 40 39 40 40 41 41 41 40 40 40 40 41 41 41 41 41 41 41 41 41 41 42 42 42 42 42 42
31 32 33 34 35 36 37 38 38 39 40 41 41 42 43 43 43 42 43 43 43 43 44 43 44 44 44 43 43 43 43 44 44 44 45 45 45 45
32 33 35 36 37 38 38 38 39 40 41 42 43 44 44 44 45 45 46 46 46 46 48 47 46 47 47 47 46 46 46 46 46 47 47 47 48 48
33 35 36 37 38 39 40 40 41 41 43 44 44 44 45 46 47 48 49 49 48 48 49 50 50 50 50 50 50 49 49 49 49 50 51 50 51 51
35 37 38 39 41 42 42 42 43 43 44 45 45 46 47 47 48 50 50 51 51 51 51 53 53 53 52 51 52 52 52 52 52 52 52 52 52 52
36 38 39 39 40 41 42 43 44 45 46 46 47 47 48 50 51 52 53 54 53 53 53 54 54 55 55 54 53 53 53 53 54 54 53 52 53 53
38 38 39 40 41 41 43 44 45 46 47 48 49 49 51 52 52 52 53 54 55 55 56 57 57 57 57 56 54 54 55 54 54 53 52 51 51 51
39 40 41 42 43 44 45 47 48 49 50 50 51 52 52 53 53 52 52 53 54 54 55 55 56 56 56 55 55 54 54 53 52 52 51 51 51 51
41 42 43 44 46 47 48 50 51 51 52 52 53 53 54 54 54 54 54 55 55 54 53 54 54 55 54 54 54 54 54 53 52 51 52 51 51 51
43 44 46 47 49 50 51 53 53 54 54 54 55 55 56 56 56 56 56 56 56 55 54 54 54 54 54 53 53 52 52 52 51 51 50 50 49 49
46 47 49 51 52 53 53 54 55 55 55 56 57 57 57 56 56 56 55 55 53 52 52 52 52 51 51 50 50 49 47 46 46 47 47 47 46 46
49 51 52 53 54 54 54 55 55 55 56 56 56 55 54 54 53 52 51 50 49 48 48 48 47 47 45 44 43 44 43 42 43 43 43 43 43 42
52 52 53 54 54 54 54 54 54 54 54 53 53 52 51 51 50 49 48 47 47 45 44 43 43 42 41 40 39 39 40 40 39 39 39 40 40 40
52 53 53 53 52 52 52 52 52 51 50 49 49 49 48 47 46 45 44 43 42 41 40 39 39 39 38 37 36 35 36 37 37 37 37 37 38 39
52 52 52 52 52 51 50 50 49 48 47 46 46 45 44 43 43 42 42 41 40 39 37 36 35 34 34 33 33 32 32 33 34 35 35 35 35 34
51 51 50 50 49 48 47 46 46 45 44 43 42 41 41 41 40 40 39 38 37 36 34 33 32 31 31 31 31 30 31 31 31 30 30 31 31 30
Wind_Direction
256 261 268 274 279 283 288 291 293 295 297 298 298 297 296 296 296 295 296 297 296 296 295 294 294 293 292 291 291 289 288 287 287 286 285 285 284 283
259 264 270 275 279 282 285 288 291 292 293 294 295 294 294 295 295 293 292 293 292 292 291 292 292 291 291 289 288 287 286 286 285 285 284 284 284 283
263 267 270 274 278 281 284 288 290 291 292 293 293 294 294 293 293 292 291 290 289 288 288 289 289 288 288 287 286 285 284 283 283 282 282 281 281 281
265 269 272 275 278 281 284 287 289 289 290 291 292 293 292 291 291 290 289 288 287 286 286 286 286 286 286 285 284 283 282 281 281 280 279 279 279 279
267 270 272 276 279 280 282 285 286 288 288 289 290 291 290 290 290 289 287 287 286 285 284 284 284 284 284 283 282 281 280 280 279 279 279 278 278 278
271 274 275 278 280 280 282 284 285 286 287 288 288 290 290 289 289 289 287 287 286 285 284 283 284 284 283 282 281 281 280 279 278 278 278 278 277 276
274 276 278 280 281 282 283 284 286 286 286 288 287 288 289 288 288 288 287 286 286 285 284 283 283 283 283 282 280 280 279 279 278 278 277 277 276 276
275 277 278 279 282 284 284 285 286 286 286 287 286 287 287 287 286 286 287 285 284 284 284 284 283 282 282 281 280 280 279 278 278 277 277 277 276 275
275 278 280 281 283 284 285 285 286 286 287 287 286 286 286 286 286 286 286 285 284 283 282 282 281 281 281 280 279 279 278 278 277 277 276 275 274 274
279 280 282 283 284 285 286 286 286 286 287 288 288 287 286 286 286 285 285 285 284 283 282 281 280 280 280 281 280 279 278 277 277 276 276 275 274 273
281 282 283 285 287 287 287 286 285 286 287 288 289 288 287 287 286 285 285 285 284 282 282 282 280 279 279 280 279 278 277 277 277 276 275 275 274 273
281 283 284 286 287 288 288 288 287 287 288 288 287 287 287 287 287 286 285 285 284 283 282 282 282 281 280 280 279 278 277 276 276 276 275 274 273 272
285 286 287 288 288 288 289 289 289 289 288 288 287 287 286 286 285 286 285 285 285 284 283 282 282 282 281 279 278 277 277 277 276 276 276 275 274 273
287 287 289 290 289 289 290 291 291 291 291 290 288 288 287 286 286 285 285 285 285 285 283 282 282 282 281 280 279 277 277 277 277 277 276 274 273 272
289 290 290 291 291 291 292 292 292 292 292 291 289 289 288 288 287 287 286 286 286 285 284 283 282 282 281 280 279 278 277 276 276 276 275 274 274 273
291 291 292 293 292 293 293 293 293 293 292 291 290 289 289 288 288 288 287 286 286 286 284 283 282 282 281 281 280 278 278 276 275 275 276 276 276 275
292 293 293 293 293 293 293 293 293 292 292 291 290 290 290 289 288 287 287 286 285 285 284 283 281 281 281 281 281 280 279 278 277 277 278 278 278 277
293 293 293 293 294 293 293 293 292 292 291 290 289 289 289 288 288 287 287 286 286 285 284 284 283 282 281 280 281 281 280 279 279 278 279 279 278 277
293 294 294 294 294 294 294 293 293 293 292 291 290 290 289 288 287 287 287 286 284 284 284 284 284 283 282 282 281 281 281 280 280 280 280 280 278 277
295 296 296 295 295 295 295 295 295 294 294 293 292 291 290 289 288 288 287 287 287 286 286 285 284 283 283 282 280 280 281 282 282 282 281 280 280 279
297 297 297 297 297 297 297 296 296 296 295 293 293 292 291 290 289 289 289 288 288 288 286 285 284 283 282 281 281 280 281 283 283 285 284 284 282 280
299 299 299 298 298 297 297 296 296 295 295 294 292 291 290 289 289 289 289 288 288 288 286 286 285 284 284 283 283 283 283 284 286 288 288 289 288 285
301 301 300 299 298 298 297 296 296 296 295 294 293 292 291 290 289 288 289 289 288 287 287 285 283 283 284 284 285 285 286 287 287 289 290 290 289 287
Height
5879 5880 5881 5881 5881 5881 5881 5881 5881 5880 5880 5879 5879 5878 5878 5877 5876 5876 5875 5874 5873 5872 5871 5870 5870 5869 5868 5867 5866 5865 5864 5864 5863 5862 5861 5861 5860 5860
5876 5877 5877 5878 5878 5878 5877 5877 5876 5876 5875 5875 5875 5874 5873 5872 5872 5871 5870 5869 5868 5867 5866 5865 5864 5863 5862 5862 5861 5860 5859 5858 5857 5856 5855 5855 5854 5854
5873 5873 5873 5874 5874 5873 5873 5872 5872 5871 5870 5870 5869 5869 5867 5867 5866 5865 5864 5863 5862 5861 5860 5859 5858 5857 5856 5855 5854 5853 5852 5851 5850 5849 5849 5848 5847 5847
5868 5868 5869 5869 5869 5868 5868 5867 5866 5865 5865 5864 5863 5863 5861 5860 5859 5858 5857 5856 5855 5854 5853 5851 5850 5849 5848 5847 5846 5845 5844 5843 5842 5841 5841 5840 5839 5839
5863 5863 5863 5863 5862 5862 5861 5861 5860 5859 5858 5858 5857 5855 5854 5853 5851 5850 5848 5847 5846 5845 5844 5843 5842 5841 5839 5838 5837 5836 5835 5834 5833 5832 5832 5831 5830 5830
5857 5857 5857 5856 5856 5855 5854 5854 5853 5852 5851 5850 5849 5847 5846 5845 5843 5841 5840 5838 5837 5836 5835 5833 5832 5831 5830 5828 5827 5826 5825 5824 5823 5822 5821 5821 5820 5819
5850 5850 5850 5849 5848 5848 5847 5846 5845 5844 5842 5841 5840 5839 5837 5835 5834 5832 5831 5829 5827 5825 5824 5823 5822 5821 5819 5818 5816 5815 5814 5813 5812 5811 5810 5809 5809 5808
5843 5842 5842 5842 5841 5840 5838 5837 5836 5834 5833 5831 5830 5828 5827 5825 5823 5821 5820 5818 5817 5815 5813 5812 5810 5809 5808 5806 5805 5803 5802 5801 5800 5799 5798 5797 5796 5796
5835 5834 5834 5833 5832 5830 5829 5827 5826 5824 5822 5820 5819 5817 5816 5814 5811 5810 5807 5806 5804 5802 5800 5799 5797 5796 5794 5793 5792 5791 5789 5788 5786 5785 5784 5784 5783 5782
5826 5825 5825 5823 5822 5821 5819 5817 5815 5813 5811 5809 5808 5806 5804 5801 5799 5797 5795 5793 5792 5789 5786 5785 5784 5782 5781 5779 5778 5776 5775 5773 5772 5771 5770 5769 5768 5767
5817 5816 5815 5814 5812 5810 5808 5807 5805 5802 5800 5798 5795 5793 5791 5788 5786 5783 5781 5779 5778 5776 5773 5770 5769 5767 5766 5765 5763 5761 5759 5758 5757 5755 5754 5753 5752 5751
5808 5807 5805 5803 5802 5799 5797 5795 5793 5790 5788 5785 5783 5780 5778 5775 5772 5769 5767 5764 5762 5761 5758 5755 5753 5751 5750 5749 5746 5745 5743 5741 5740 5738 5737 5736 5734 5734
5798 5796 5794 5792 5790 5788 5785 5783 5780 5778 5775 5772 5770 5767 5764 5761 5758 5755 5752 5749 5746 5744 5742 5738 5736 5733 5731 5732 5730 5728 5725 5724 5722 5721 5719 5718 5717 5716
5788 5786 5783 5781 5779 5776 5773 5770 5767 5764 5761 5759 5756 5753 5750 5746 5743 5740 5736 5733 5730 5727 5724 5720 5717 5715 5713 5712 5712 5711 5708 5706 5704 5703 5702 5700 5699 5698
5777 5774 5772 5769 5767 5764 5761 5757 5754 5751 5747 5744 5741 5738 5734 5730 5727 5723 5720 5717 5713 5709 5706 5702 5699 5696 5694 5693 5692 5691 5690 5688 5685 5684 5683 5683 5682 5681
5766 5763 5760 5757 5754 5751 5747 5744 5740 5736 5733 5729 5725 5722 5718 5714 5710 5707 5703 5700 5696 5693 5688 5684 5681 5679 5677 5675 5673 5672 5671 5669 5668 5666 5665 5665 5664 5663
5754 5751 5748 5744 5741 5737 5733 5729 5725 5721 5717 5713 5709 5705 5701 5697 5693 5689 5685 5681 5678 5675 5671 5667 5663 5661 5659 5657 5656 5654 5652 5651 5650 5648 5647 5647 5646 5644
5742 5738 5734 5731 5727 5722 5718 5714 5709 5705 5701 5696 5692 5687 5683 5679 5675 5671 5667 5663 5660 5657 5653 5650 5647 5644 5643 5641 5639 5637 5636 5634 5633 5631 5629 5629 5629 5628
5728 5724 5719 5715 5710 5706 5701 5697 5692 5687 5683 5678 5674 5669 5665 5661 5657 5653 5649 5646 5643 5640 5637 5633 5630 5628 5627 5626 5625 5621 5619 5618 5617 5616 5614 5613 5612 5612
5713 5709 5704 5699 5694 5689 5685 5680 5675 5670 5666 5661 5657 5652 5648 5644 5640 5636 5633 5630 5627 5624 5622 5619 5616 5613 5612 5612 5611 5610 5606 5603 5603 5601 5600 5598 5597 5596
5698 5693 5688 5683 5678 5673 5668 5663 5658 5654 5649 5645 5641 5636 5632 5628 5625 5622 5619 5616 5613 5610 5608 5606 5603 5601 5599 5598 5598 5597 5595 5591 5589 5587 5586 5584 5583 5581
5683 5677 5672 5667 5662 5658 5653 5648 5643 5638 5634 5630 5626 5622 5618 5614 5611 5608 5605 5602 5600 5597 5595 5594 5592 5590 5588 5586 5585 5585 5583 5581 5578 5575 5573 5570 5567 5566
5667 5662 5656 5651 5647 5642 5638 5633 5628 5624 5619 5615 5611 5608 5604 5601 5598 5595 5592 5590 5587 5586 5584 5583 5581 5579 5578 5576 5574 5573 5572 5570 5568 5566 5563 5560 5557 5554